Location: Carri�res
(48.9069°N, 2.1792°E)
Time: 20:20:51
(UTC+00:00)

AQUARIUS - Pass Details

Date: 17 January 2021
Orbit: 650 x 652 km, 98.0° (Epoch: 01 March)

Event Time Altitude Azimuth Distance (km) Brightness Sun altitude
Rises 16:58:43 0° 157° (SSE) 2,961 7.6 -5.7°
Reaches altitude 10° 17:00:55 10° 155° (SSE) 2,055 6.7 -6.0°
Maximum altitude 17:05:22 68° 73° (ENE) 705 4.1 -6.7°
Drops below altitude 10° 17:09:52 10° 351° (N) 2,072 6.6 -7.3°
Sets 17:12:06 0° 349° (N) 2,988 7.4 -7.7°
